Location: Cisewo
(53.3833°N, 14.9000°E)
Time: 12:20:56
(UTC+00:00)

ATLAS 5 CENTAUR R/B - Pass Details

Date: 18 April 2021
Orbit: 516 x 1141 km, 63.3° (Epoch: 02 May)

Event Time Altitude Azimuth Distance (km) Brightness Sun altitude
Rises 22:49:36 0° 307° (NW) 3,014 5.6 -25.4°
Reaches altitude 10° 22:51:54 10° 316° (NW) 2,187 4.9 -25.4°
Maximum altitude 22:56:37 39° 25° (NNE) 1,178 3.3 -25.4°
Drops below altitude 10° 23:02:11 10° 94° (E) 2,583 4.7 -25.4°
Sets 23:05:07 0° 102° (ESE) 3,630 5.4 -25.4°
